STARLINK-2622

operational
NORAD ID: 48360 Int'l Des: 2021-038 Owner: SPXS Country: US Constellation: starlink
LEOCIRCULARSTARLINK_TYPE

关于 STARLINK-2622

正在加载描述...

实时位置

正在加载3D地球...

即将过境

高度历史

Altitude vs Time

uPlot chart will show altitude changes over time

两行轨道根数

1 48360U 21038H 25251.32145154 .00000259 00000-0 36253-4 0 9994
2 48360 53.0536 100.3009 0001340 92.0548 268.0594 15.06399668239533
Epoch: Sep 8, 2025 • Age: 17 hours

当前状态

高度 547.6 km
速度 7.59 km/s
星下点 24.25°N, 95.26°W
发射日期 May 4, 2021
运行时间 4.3 years
类型 internet

技术详情

分类 Payload
质量 260.00 kg
干质量 248.00 kg
总质量 260.00 kg
长度 0.20 m
直径 2.80 m
跨度 9.00 m
形状 Box + pan
制造商 SPXS
平台类型 Starlink
阶段状态 In Orbit
所有者/国家 SPXS/US

大型星座

Loading constellations...